{"data":{"norad_id":69026,"epoch":"2026-09-20T01:36:08.045856Z","epoch_age_seconds":56746,"freshness":"FRESH","line1":"1 69026U 26101B   26263.06675979  .00009441  00000+0  29436-3 0  9995","line2":"2 69026  97.2839 116.5751 0001594  97.1714 262.9710 15.33449382 21111","mean_motion":15.33449382,"eccentricity":0.0001594,"inclination_deg":97.2839,"raan_deg":116.5751,"arg_perigee_deg":97.1714,"mean_anomaly_deg":262.971,"bstar":0.00029436,"rev_number":2111,"period_min":93.905936309543,"perigee_km":464.43925621858,"apogee_km":466.62101730178,"semimajor_km":6843.6671367602,"source":"CELESTRAK","updated_at":"2026-09-20T09:00:44.057835Z"}}